Snowfall_Accumulation
0.0 0.0 0.0 0.0 0.0 0.0 0.0 0.0 0.0 0.0 0.0 0.0 0.0 0.0 0.0 0.0 0.0 0.0 0.0 0.0 0.0 0.0 0.0 0.0 0.0 0.0 0.0 0.0 0.0 0.0 0.0 0.0 0.0 0.0 0.0 0.0 0.0 0.0 0.0 0.0 0.0 0.0 0.0 0.0 0.0 0.0 0.0 0.0 0.0
0.0 0.0 0.0 0.0 0.0 0.3 0.0 0.0 0.0 0.0 0.0 0.0 0.0 0.0 0.0 0.0 0.0 0.0 0.0 0.0 0.0 0.0 0.0 0.0 0.0 0.0 0.0 0.0 0.0 0.0 0.0 0.0 0.0 0.0 0.0 0.0 0.0 0.0 0.0 0.0 0.0 0.0 0.0 0.0 0.0 0.0 0.0 0.0 0.0
0.0 0.0 0.0 0.0 0.1 0.4 0.0 0.0 0.0 0.0 0.0 0.0 0.0 0.0 0.0 0.0 0.0 0.0 0.0 0.0 0.0 0.0 0.0 0.0 0.0 0.0 0.0 0.0 0.0 0.0 0.0 0.0 0.0 0.0 0.0 0.0 0.0 0.0 0.0 0.0 0.0 0.0 0.0 0.0 0.0 0.0 0.0 0.0 0.0
0.0 0.0 0.0 0.0 0.2 0.0 0.0 0.0 0.0 0.0 0.0 0.0 0.0 0.0 0.0 0.0 0.0 0.0 0.0 0.0 0.0 0.0 0.0 0.0 0.0 0.0 0.0 0.0 0.0 0.0 0.0 0.0 0.0 0.0 0.0 0.0 0.0 0.0 0.0 0.0 0.0 0.0 0.0 0.0 0.0 0.0 0.0 0.0 0.0
0.0 0.0 0.0 0.1 0.1 0.0 0.0 0.0 0.0 0.0 0.0 0.0 0.0 0.0 0.0 0.0 0.0 0.0 0.0 0.0 0.0 0.0 0.0 0.0 0.0 0.0 0.0 0.0 0.0 0.0 0.0 0.0 0.0 0.0 0.0 0.0 0.0 0.0 0.0 0.0 0.0 0.0 0.0 0.0 0.0 0.0 0.0 0.0 0.0
0.0 0.0 0.2 0.8 0.1 0.0 0.0 0.0 0.0 0.0 0.0 0.0 0.0 0.0 0.0 0.0 0.0 0.0 0.0 0.0 0.0 0.0 0.0 0.0 0.0 0.0 0.0 0.0 0.0 0.0 0.0 0.0 0.0 0.0 0.0 0.0 0.0 0.0 0.0 0.0 0.0 0.0 0.0 0.0 0.0 0.0 0.0 0.0 0.0
0.0 0.0 0.4 0.4 0.1 0.0 0.0 0.0 0.0 0.0 0.0 0.0 0.0 0.0 0.0 0.0 0.0 0.0 0.0 0.0 0.0 0.0 0.0 0.0 0.0 0.0 0.0 0.0 0.0 0.0 0.0 0.0 0.0 0.0 0.0 0.0 0.0 0.0 0.0 0.0 0.0 0.0 0.0 0.0 0.0 0.0 0.0 0.0 0.0
0.0 0.0 0.3 0.2 0.2 0.0 0.0 0.0 0.0 0.0 0.0 0.0 0.0 0.0 0.0 0.0 0.0 0.0 0.0 0.0 0.0 0.0 0.0 0.0 0.0 0.0 0.0 0.0 0.0 0.0 0.0 0.0 0.0 0.0 0.0 0.0 0.0 0.0 0.0 0.0 0.0 0.0 0.0 0.0 0.0 0.0 0.0 0.0 0.0
0.0 0.1 1.0 0.3 0.1 0.0 0.0 0.0 0.0 0.0 0.0 0.0 0.0 0.0 0.0 0.0 0.0 0.0 0.0 0.0 0.0 0.0 0.0 0.0 0.0 0.0 0.0 0.0 0.0 0.0 0.0 0.0 0.0 0.0 0.0 0.0 0.0 0.0 0.0 0.0 0.0 0.0 0.0 0.0 0.0 0.0 0.0 0.0 0.0
0.0 0.8 0.3 0.0 0.0 0.1 0.1 0.1 0.1 0.0 0.0 0.0 0.0 0.0 0.0 0.0 0.0 0.0 0.0 0.0 0.0 0.0 0.0 0.0 0.0 0.0 0.0 0.0 0.0 0.0 0.0 0.0 0.0 0.0 0.0 0.0 0.0 0.0 0.0 0.0 0.0 0.0 0.0 0.0 0.0 0.0 0.0 0.0 0.0
0.1 0.2 0.0 0.0 0.0 0.0 0.1 0.1 0.1 0.1 0.1 0.1 0.0 0.0 0.0 0.0 0.0 0.0 0.0 0.0 0.0 0.0 0.0 0.0 0.0 0.0 0.0 0.0 0.0 0.0 0.0 0.0 0.0 0.0 0.0 0.0 0.0 0.0 0.0 0.0 0.0 0.0 0.0 0.0 0.0 0.0 0.0 0.0 0.0
0.2 0.1 0.1 0.1 0.0 0.1 0.2 0.1 0.1 0.2 0.3 0.1 0.0 0.0 0.0 0.0 0.0 0.0 0.0 0.0 0.0 0.0 0.0 0.0 0.0 0.0 0.0 0.0 0.0 0.0 0.0 0.0 0.0 0.0 0.0 0.0 0.0 0.0 0.0 0.0 0.0 0.0 0.0 0.0 0.0 0.0 0.0 0.0 0.0
0.2 0.1 0.0 0.0 0.0 0.1 0.2 0.2 0.2 0.3 0.2 0.2 0.1 0.0 0.0 0.0 0.0 0.0 0.0 0.0 0.0 0.0 0.0 0.0 0.0 0.0 0.0 0.0 0.0 0.0 0.0 0.0 0.0 0.0 0.0 0.0 0.0 0.0 0.0 0.0 0.0 0.0 0.0 0.0 0.0 0.0 0.0 0.0 0.0
0.1 0.0 0.0 0.0 0.0 0.0 0.2 0.4 0.4 0.4 0.2 0.1 0.1 0.1 0.1 0.0 0.0 0.0 0.0 0.0 0.0 0.0 0.0 0.1 0.0 0.0 0.0 0.0 0.0 0.0 0.0 0.0 0.0 0.0 0.0 0.0 0.0 0.0 0.0 0.0 0.0 0.0 0.0 0.0 0.0 0.0 0.0 0.0 0.0
0.1 0.1 0.1 0.0 0.0 0.0 0.0 0.4 0.5 0.5 0.2 0.1 0.2 0.1 0.1 0.1 0.1 0.0 0.0 0.0 0.0 0.1 0.0 0.0 0.1 0.1 0.1 0.0 0.1 0.1 0.1 0.0 0.0 0.0 0.0 0.0 0.0 0.0 0.0 0.0 0.0 0.0 0.0 0.0 0.0 0.0 0.0 0.0 0.0
0.3 0.8 1.2 0.1 0.0 0.0 0.5 1.4 0.4 0.3 0.2 0.2 0.2 0.2 0.2 0.2 0.1 0.1 0.1 0.1 0.0 0.0 0.0 0.0 0.1 0.1 0.1 0.1 0.1 0.1 0.1 0.1 0.1 0.1 0.1 0.1 0.1 0.0 0.0 0.0 0.0 0.0 0.0 0.0 0.0 0.0 0.0 0.0 0.0
4.1 5.4 3.4 1.0 0.1 0.1 0.5 0.9 0.4 0.3 0.3 0.3 0.3 0.2 0.2 0.2 0.2 0.2 0.1 0.2 0.1 0.1 0.1 0.1 0.1 0.1 0.1 0.1 0.1 0.1 0.1 0.1 0.1 0.1 0.1 0.1 0.1 0.1 0.0 0.0 0.0 0.0 0.0 0.0 0.0 0.0 0.0 0.0 0.0
5.1 3.9 2.2 1.7 0.4 0.4 0.9 0.8 0.4 0.3 0.3 0.5 0.4 0.3 0.3 0.3 0.3 0.2 0.2 0.2 0.2 0.2 0.1 0.1 0.1 0.1 0.1 0.1 0.1 0.1 0.1 0.1 0.2 0.2 0.1 0.1 0.1 0.1 0.1 0.0 0.0 0.0 0.0 0.0 0.0 0.0 0.0 0.0 0.0
2.8 2.8 2.5 1.1 0.5 1.0 1.2 1.2 0.6 0.3 0.3 0.3 0.4 0.5 0.5 0.4 0.3 0.2 0.2 0.2 0.2 0.2 0.2 0.1 0.1 0.1 0.1 0.2 0.1 0.1 0.1 0.1 0.2 0.2 0.2 0.1 0.2 0.1 0.2 0.1 0.0 0.0 0.0 0.0 0.0 0.0 0.0 0.0 0.0
3.0 3.5 2.7 1.4 0.7 1.6 1.7 1.6 0.6 0.4 0.5 0.4 0.3 0.3 0.4 0.3 0.3 0.2 0.1 0.1 0.2 0.1 0.2 0.2 0.2 0.2 0.2 0.2 0.3 0.1 0.3 0.1 0.1 0.2 0.2 0.2 0.3 0.2 0.2 0.2 0.1 0.1 0.1 0.0 0.0 0.0 0.0 0.0 0.0
3.6 3.0 2.8 3.2 1.9 1.3 2.8 2.8 1.7 0.8 0.5 0.5 0.3 0.3 0.2 0.3 0.3 0.3 0.2 0.1 0.2 0.3 0.2 0.3 0.3 0.3 0.2 0.2 0.2 0.3 0.3 0.2 0.1 0.1 0.2 0.2 0.3 0.3 0.3 0.2 0.2 0.2 0.1 0.1 0.0 0.0 0.1 0.1 0.0
4.6 1.2 1.6 2.9 5.0 7.0 5.3 10.7 3.5 1.6 1.0 0.9 0.6 0.5 0.4 0.3 0.4 0.2 0.2 0.1 0.1 0.2 0.3 0.3 0.3 0.4 0.4 0.2 0.3 0.4 0.5 0.5 0.2 0.3 0.2 0.3 0.3 0.4 0.4 0.2 0.2 0.2 0.2 0.1 0.1 0.0 0.1 0.2 0.1
3.0 0.7 1.7 2.8 6.3 9.1 4.7 9.6 5.8 2.4 1.9 1.8 1.2 0.8 0.5 0.5 0.5 0.5 0.3 0.1 0.1 0.1 0.2 0.2 0.2 0.3 0.4 0.3 0.4 0.5 0.5 0.5 0.5 0.4 0.3 0.2 0.3 0.4 0.5 0.5 0.3 0.2 0.3 0.2 0.2 0.2 0.1 0.1 0.1
1.2 1.6 2.0 3.3 8.7 15.0 6.3 8.5 7.6 5.2 3.9 2.2 1.3 1.0 0.7 0.8 0.4 0.4 0.2 0.2 0.1 0.1 0.1 0.2 0.2 0.2 0.3 0.3 0.3 0.4 0.5 0.5 0.5 0.5 0.6 0.2 0.3 0.3 0.4 0.5 0.3 0.3 0.3 0.3 0.2 0.2 0.2 0.2 0.2
3.3 11.1 21.5 21.5 20.2 11.7 4.7 7.0 8.6 3.7 2.5 2.2 1.9 1.5 1.1 1.2 0.8 0.5 0.4 0.3 0.2 0.1 0.1 0.2 0.2 0.2 0.3 0.3 0.3 0.3 0.3 0.5 0.6 0.6 0.7 0.7 0.3 0.4 0.3 0.5 0.6 0.4 0.4 0.3 0.3 0.4 0.3 0.3 0.2
4.1 8.0 16.5 15.6 10.8 6.9 5.7 7.5 7.8 3.1 2.5 2.1 1.8 1.6 1.3 1.2 1.2 1.0 0.7 0.4 0.2 0.2 0.1 0.2 0.2 0.2 0.2 0.3 0.3 0.2 0.3 0.3 0.4 0.5 0.7 0.9 0.6 0.5 0.3 0.4 0.4 0.6 0.4 0.4 0.3 0.4 0.3 0.3 0.3
5.8 7.8 6.4 12.3 9.1 7.9 7.7 6.9 4.9 2.0 1.9 2.0 1.6 1.4 1.2 1.4 1.2 1.3 1.1 0.8 0.4 0.4 0.3 0.2 0.2 0.2 0.2 0.2 0.2 0.3 0.3 0.3 0.3 0.4 0.6 0.8 0.8 0.5 0.5 0.5 0.5 0.4 0.6 0.3 0.4 0.6 0.4 0.3 0.4
2.9 5.0 10.3 16.8 14.7 10.6 7.2 6.6 8.0 4.9 3.6 2.6 2.1 1.7 1.4 1.3 1.3 1.2 1.2 1.1 0.7 0.7 0.6 0.3 0.2 0.2 0.2 0.2 0.2 0.2 0.3 0.2 0.2 0.3 0.4 0.8 0.4 0.5 0.5 0.6 0.6 0.6 0.5 0.3 0.4 0.4 0.3 0.3 0.4
4.9 7.9 10.9 13.0 11.6 11.4 8.8 8.8 7.3 5.5 3.7 2.9 2.3 2.1 1.9 1.6 1.6 1.5 1.3 1.3 1.1 0.9 0.8 0.8 0.4 0.2 0.2 0.2 0.3 0.2 0.2 0.3 0.2 0.2 0.2 0.4 0.4 0.4 0.4 0.5 0.6 0.6 0.5 0.4 0.4 0.4 0.4 0.3 0.3
3.2 6.4 9.3 14.7 10.9 8.6 8.9 9.2 4.6 3.8 3.3 3.2 2.8 2.6 2.4 2.2 1.8 1.8 1.6 1.3 1.2 1.1 1.0 1.0 0.9 0.5 0.4 0.2 0.2 0.2 0.2 0.5 0.3 0.3 0.3 0.4 0.3 0.3 0.4 0.4 0.5 0.6 0.6 0.5 0.4 0.5 0.4 0.4 0.4